Overview Statistics Trail Chart Weather Telemetry Raw packets
 

This is the latest recevied weather packets stored in our database for station/object K6CEG. If no packets are shown the sender has not sent any weather packets the latest 10 day(s).

<< 96 97 98 99 100 101 102 >>
Time Temp. Humidity Pressure Rain* Wind** Luminosity Snow
1787957327 38.89° C 27% 1012.3 hPa 0 mm - 103 W/m² -
1787957026 38.33° C 27% 1012.3 hPa 0 mm - 143 W/m² -
1787956725 38.33° C 27% 1012.6 hPa 0 mm - 129 W/m² -
1787956421 38.33° C 28% 1012.3 hPa 0 mm - 257 W/m² -
1787956116 38.89° C 28% 1012.5 hPa 0 mm - 104 W/m² -
1787955812 38.89° C 28% 1012.6 hPa 0 mm - 83 W/m² -
1787955507 38.89° C 27% 1012.6 hPa 0 mm - 81 W/m² -
1787955207 38.89° C 27% 1012.5 hPa 0 mm - 112 W/m² -
1787954902 38.89° C 27% 1012.5 hPa 0 mm - 114 W/m² -
1787954598 38.33° C 29% 1012.9 hPa 0 mm - 334 W/m² -
1787954297 38.33° C 28% 1012.7 hPa 0 mm - 167 W/m² -
1787953992 38.89° C 28% 1012.9 hPa 0 mm - 393 W/m² -
1787953690 38.89° C 28% 1013 hPa 0 mm - 122 W/m² -
1787953386 39.44° C 28% 1012.8 hPa 0 mm - 288 W/m² -
1787953084 40° C 28% 1012.7 hPa 0 mm - 439 W/m² -
1787952784 40.56° C 28% 1013.4 hPa 0 mm - 603 W/m² -
1787952478 41.11° C 27% 1013.2 hPa 0 mm - 690 W/m² -
1787952175 40° C 29% 1013.1 hPa 0 mm - 593 W/m² -
1787951873 40° C 29% 1013.1 hPa 0 mm - 608 W/m² -
1787951569 40° C 30% 1013.3 hPa 0 mm - 439 W/m² -
1787951265 40° C 31% 1013.2 hPa 0 mm - 529 W/m² -
1787950961 39.44° C 31% 1013.2 hPa 0 mm - 613 W/m² -
1787950656 39.44° C 31% 1013.3 hPa 0 mm - 616 W/m² -
1787950352 39.44° C 32% 1013 hPa 0 mm - 572 W/m² -
1787950048 38.89° C 32% 1013.3 hPa 0 mm - 589 W/m² -

* Rain latest hour (hover to see other rain measurements)
** Current wind speed in m/s (hover to see current wind gust speed)